Weather History for Oakdale, LA

Change the Weather History Date:

Monday, January 6, 2014

  Actual Average (KPOE) Record (KPOE)
Temperature  
Mean Temperature 28 °F -  
Max Temperature 33 °F 58 °F 75 °F (2008)
Min Temperature 21 °F 38 °F 21 °F (2014)
Degree Days  
Heating Degree Days 37    
Moisture  
Dew Point 12 °F    
Average Humidity 52    
Maximum Humidity 89    
Minimum Humidity 29    
Precipitation  
Precipitation 0.00 in - - ()
Sea Level Pressure  
Sea Level Pressure 30.57 in    
Wind  
Wind Speed 10 mph (NNW)    
Max Wind Speed 20 mph    
Max Gust Speed 31 mph    
Visibility 10 miles    
Events      
Averages and records for this station are not official NWS values.
T = Trace of Precipitation, MM = Missing Value Source: NWS Daily Summary

Daily Weather History Graph

Daily Weather History Graph

Search for Another Location

Airport:

Trip Planner

Search our weather history database for the weather conditions in past years. The results will help you decide how hot, cold, wet, or windy it might be!

Date:

Astronomy

Jan. 06, 2014 Rise Set
Actual Time 7:09 AM CST 5:24 PM CST
Civil Twilight 6:42 AM CST 5:50 PM CST
Nautical Twilight 6:12 AM CST 6:20 PM CST
Astronomical Twilight 5:43 AM CST 6:49 PM CST
Moon 10:50 AM CST (1/6) 11:30 PM CST (1/6)
Length of Visible Light 11h 07m
Length of Day
10h 15m
Waxing Crescent, 35% of the Moon is Illuminated
Jan 6
Waxing Crescent
Jan 7
First Quarter
Jan 15
Full
Jan 23
Last Quarter
Jan 30
New

Hourly Weather History & Observations

Time (CST) Temp. Windchill Dew Point Humidity Pressure Visibility Wind Dir Wind Speed Gust Speed Precip Events Conditions
12:15 AM 30.9 °F 21.2 °F 20.1 °F 64% 30.34 in 10.0 mi North 12.7 mph 23.0 mph N/A   Overcast
12:35 AM 30.9 °F 21.2 °F 20.3 °F 65% 30.35 in 10.0 mi NNW 12.7 mph 20.7 mph N/A   Overcast
12:55 AM 30.6 °F 18.2 °F 19.6 °F 64% 30.35 in 10.0 mi North 19.6 mph 31.1 mph N/A   Overcast
3:15 AM 27.5 °F 17.4 °F 18.0 °F 67% 30.43 in 10.0 mi North 11.5 mph 17.3 mph N/A   Clear
3:35 AM 27.3 °F 18.4 °F 17.8 °F 67% 30.43 in 10.0 mi North 9.2 mph 20.7 mph N/A   Clear
3:55 AM 27.3 °F 17.7 °F 17.4 °F 66% 30.43 in 10.0 mi North 10.4 mph 21.9 mph N/A   Clear
4:15 AM 27.0 °F 15.6 °F 17.4 °F 67% 30.43 in 10.0 mi North 13.8 mph 24.2 mph N/A   Clear
4:35 AM 26.6 °F 17.5 °F 17.6 °F 69% 30.44 in 10.0 mi North 9.2 mph - N/A   Clear
4:55 AM 26.2 °F 16.4 °F 17.8 °F 70% 30.46 in 10.0 mi North 10.4 mph 20.7 mph N/A   Clear
5:15 AM 26.1 °F 16.2 °F 17.6 °F 70% 30.47 in 10.0 mi NNW 10.4 mph 19.6 mph N/A   Clear
5:35 AM 25.5 °F 15.5 °F 17.6 °F 72% 30.48 in 10.0 mi NNW 10.4 mph 16.1 mph N/A   Clear
5:55 AM 25.3 °F 16.0 °F 17.4 °F 72% 30.49 in 10.0 mi NNW 9.2 mph - N/A   Clear
6:15 AM 25.0 °F 14.8 °F 16.9 °F 71% 30.50 in 10.0 mi NNW 10.4 mph 16.1 mph N/A   Clear
6:35 AM 24.8 °F 13.4 °F 16.7 °F 71% 30.52 in 10.0 mi NNW 12.7 mph 17.3 mph N/A   Clear
6:55 AM 24.4 °F 14.2 °F 16.2 °F 71% 30.52 in 10.0 mi North 10.4 mph - N/A   Clear
7:15 AM 24.4 °F 14.2 °F 15.1 °F 68% 30.54 in 10.0 mi North 10.4 mph 18.4 mph N/A   Clear
7:35 AM 24.8 °F 13.4 °F 14.4 °F 65% 30.55 in 10.0 mi North 12.7 mph 18.4 mph N/A   Clear
7:55 AM 25.5 °F 14.9 °F 14.7 °F 64% 30.57 in 10.0 mi North 11.5 mph 17.3 mph N/A   Clear
8:15 AM 25.7 °F 13.1 °F 14.0 °F 61% 30.58 in 10.0 mi North 16.1 mph 21.9 mph N/A   Clear
8:35 AM 25.9 °F 14.8 °F 14.0 °F 61% 30.60 in 10.0 mi North 12.7 mph 18.4 mph N/A   Clear
8:55 AM 26.4 °F 15.5 °F 12.7 °F 56% 30.62 in 10.0 mi North 12.7 mph 23.0 mph N/A   Clear
9:15 AM 27.5 °F 17.4 °F 12.0 °F 52% 30.63 in 10.0 mi North 11.5 mph 20.7 mph N/A   Clear
9:35 AM 28.2 °F 17.7 °F 12.6 °F 52% 30.63 in 10.0 mi North 12.7 mph 17.3 mph N/A   Clear
9:55 AM 29.3 °F 19.6 °F 12.7 °F 50% 30.63 in 10.0 mi North 11.5 mph - N/A   Clear
10:15 AM 30.2 °F 20.8 °F 12.2 °F 47% 30.63 in 10.0 mi North 11.5 mph 19.6 mph N/A   Clear
10:35 AM 30.7 °F 19.6 °F 11.3 °F 44% 30.63 in 10.0 mi NNW 16.1 mph 20.7 mph N/A   Clear
10:55 AM 30.7 °F 20.4 °F 8.6 °F 40% 30.63 in 10.0 mi North 13.8 mph 23.0 mph N/A   Clear
11:15 AM 31.8 °F 22.3 °F 8.1 °F 37% 30.63 in 10.0 mi North 12.7 mph 17.3 mph N/A   Clear
11:35 AM 32.2 °F 23.8 °F 7.9 °F 36% 30.62 in 10.0 mi North 10.4 mph - N/A   Clear
11:55 AM 32.9 °F 24.7 °F 8.6 °F 36% 30.61 in 10.0 mi North 10.4 mph 17.3 mph N/A   Clear
12:15 PM 33.6 °F 24.1 °F 8.1 °F 34% 30.60 in 10.0 mi NNW 13.8 mph 19.6 mph N/A   Clear
12:35 PM 32.7 °F 24.5 °F 7.2 °F 34% 30.58 in 10.0 mi North 10.4 mph 18.4 mph N/A   Clear
12:55 PM 33.3 °F 24.6 °F 7.2 °F 34% 30.58 in 10.0 mi NNW 11.5 mph 20.7 mph N/A   Clear
1:15 PM 32.9 °F 23.7 °F 5.5 °F 32% 30.58 in 10.0 mi NNW 12.7 mph 21.9 mph N/A   Clear
1:35 PM 33.1 °F 24.4 °F 5.9 °F 32% 30.57 in 10.0 mi NW 11.5 mph 20.7 mph N/A   Clear
1:55 PM 33.3 °F 25.1 °F 5.0 °F 30% 30.58 in 10.0 mi NW 10.4 mph 20.7 mph N/A   Clear
2:15 PM 33.6 °F 25.0 °F 4.6 °F 30% 30.57 in 10.0 mi NW 11.5 mph 19.6 mph N/A   Clear
2:35 PM 33.6 °F 24.1 °F 4.8 °F 30% 30.58 in 10.0 mi NW 13.8 mph 17.3 mph N/A   Clear
2:55 PM 33.1 °F 23.9 °F 3.7 °F 29% 30.59 in 10.0 mi NW 12.7 mph 19.6 mph N/A   Clear
3:15 PM 32.9 °F 23.7 °F 3.7 °F 29% 30.59 in 10.0 mi NNW 12.7 mph 18.4 mph N/A   Clear
3:35 PM 32.9 °F 24.7 °F 4.1 °F 30% 30.59 in 10.0 mi NW 10.4 mph 19.6 mph N/A   Clear
3:55 PM 32.0 °F 23.6 °F 3.4 °F 30% 30.58 in 10.0 mi NNW 10.4 mph - N/A   Clear
4:15 PM 32.0 °F 24.2 °F 4.3 °F 31% 30.58 in 10.0 mi North 9.2 mph - N/A   Clear
4:35 PM 31.6 °F 23.7 °F 4.5 °F 32% 30.59 in 10.0 mi NNW 9.2 mph - N/A   Clear
4:55 PM 31.1 °F 23.7 °F 5.0 °F 33% 30.59 in 10.0 mi NW 8.1 mph - N/A   Clear
5:15 PM 30.7 °F 24.1 °F 4.5 °F 33% 30.60 in 10.0 mi NW 6.9 mph - N/A   Clear
5:35 PM 29.8 °F 26.3 °F 5.9 °F 36% 30.60 in 10.0 mi NNW 3.5 mph - N/A   Clear
5:55 PM 29.8 °F 23.9 °F 5.2 °F 35% 30.61 in 10.0 mi NW 5.8 mph - N/A   Clear
6:15 PM 29.3 °F 24.3 °F 5.7 °F 37% 30.61 in 10.0 mi NW 4.6 mph - N/A   Clear
6:35 PM 29.3 °F 25.6 °F 6.6 °F 38% 30.62 in 10.0 mi WNW 3.5 mph - N/A   Clear
6:55 PM 28.9 °F 23.9 °F 7.5 °F 41% 30.62 in 10.0 mi NW 4.6 mph - N/A   Clear
7:15 PM 28.4 °F - 8.6 °F 43% 30.62 in 10.0 mi Calm Calm - N/A   Clear
7:35 PM 28.0 °F - 9.7 °F 46% 30.62 in 10.0 mi Calm Calm - N/A   Clear
7:55 PM 25.9 °F - 15.1 °F 64% 30.64 in 10.0 mi Calm Calm - N/A   Clear
8:15 PM 25.3 °F - 19.4 °F 78% 30.64 in 10.0 mi Calm Calm - N/A   Clear
8:35 PM 26.2 °F - 15.3 °F 63% 30.65 in 10.0 mi Calm Calm - N/A   Clear
8:55 PM 26.8 °F - 11.5 °F 53% 30.66 in 10.0 mi Calm Calm - N/A   Clear
9:15 PM 26.6 °F - 12.2 °F 55% 30.66 in 10.0 mi Calm Calm - N/A   Clear
9:35 PM 26.6 °F - 12.4 °F 55% 30.65 in 10.0 mi Calm Calm - N/A   Clear
9:55 PM 26.4 °F - 12.2 °F 55% 30.65 in 10.0 mi Calm Calm - N/A   Clear
10:15 PM 26.4 °F 22.4 °F 12.4 °F 55% 30.65 in 10.0 mi NW 3.5 mph - N/A   Clear
10:35 PM 25.7 °F - 13.3 °F 59% 30.65 in 10.0 mi Calm Calm - N/A   Clear
10:55 PM 24.8 °F - 14.9 °F 66% 30.65 in 10.0 mi Calm Calm - N/A   Clear
11:15 PM 24.4 °F - 14.5 °F 66% 30.65 in 10.0 mi Calm Calm - N/A   Clear
11:35 PM 23.2 °F - 16.0 °F 74% 30.65 in 10.0 mi Calm Calm - N/A   Clear
11:55 PM 21.7 °F - 18.9 °F 89% 30.65 in 10.0 mi Calm Calm - N/A   Clear